Location: La Bastide
(43.1661°N, 1.2755°E)
Time: 03:23:53
(UTC+00:00)

ARIANE 6 FM1 Upper Stage - Visible Passes

Search period start: 18 February 2026 00:00
Search period end: 28 February 2026 00:00
Orbit: 522 x 608 km, 62.0° (Epoch: 17 February)

Date Brightness Start Highest point End Pass type
(mag) Time Alt. Az. Time Alt. Az. Time Alt. Az.
18 Feb 3.6 19:18:43 10° NW 19:22:30 44° WSW 19:24:37 22° S visible
19 Feb 4.4 19:18:54 10° WNW 19:22:21 29° WSW 19:25:50 10° S visible
20 Feb 5.1 19:19:15 10° WNW 19:22:10 20° WSW 19:25:06 10° SSW visible
21 Feb 5.6 19:20:00 10° W 19:21:57 13° WSW 19:23:55 10° SW visible
